GLP114 UIII-ULLI

Flight info

Callsign GLP114
Flight time 6h 18m
Altitude 34000
Route BD R497 TODES/K0832F360 B228 HMN L870 ROMUM T816 AMDEN P979 BEPOL
Aircraft B738/M-SDE2E3FGHIRWXY/LB1

Departure

Time 2026-05-06 09:01
Airport Irkutsk International Airport (UIII)

Arrival

Time 2026-05-06 15:19
Airport Pulkovo Airport (ULLI)
Time Latitude Longitude Altitude Speed Heading
2026-05-06 08:18 52.27204 104.35385 1585 ft 0 kts 88°
2026-05-06 08:51 52.27204 104.35397 1585 ft 3 kts 87°
2026-05-06 08:51 52.27194 104.35442 1585 ft 6 kts 141°
2026-05-06 08:52 52.27154 104.35471 1585 ft 7 kts 134°
2026-05-06 08:52 52.27146 104.35526 1585 ft 8 kts 90°
2026-05-06 08:52 52.27149 104.35665 1585 ft 10 kts 87°
2026-05-06 08:52 52.27160 104.35790 1585 ft 12 kts 69°
2026-05-06 08:53 52.27177 104.35920 1585 ft 12 kts 86°
2026-05-06 08:53 52.27181 104.36058 1585 ft 12 kts 87°
2026-05-06 08:53 52.27184 104.36155 1585 ft 13 kts 87°
2026-05-06 08:53 52.27177 104.36300 1585 ft 13 kts 107°
2026-05-06 08:54 52.27148 104.36434 1585 ft 12 kts 110°
2026-05-06 08:54 52.27118 104.36564 1584 ft 12 kts 110°
2026-05-06 08:54 52.27089 104.36690 1584 ft 12 kts 110°
2026-05-06 08:54 52.27061 104.36814 1584 ft 11 kts 110°
2026-05-06 08:55 52.27034 104.36934 1584 ft 11 kts 111°
2026-05-06 08:55 52.27007 104.37055 1584 ft 11 kts 110°
2026-05-06 08:55 52.26988 104.37176 1584 ft 11 kts 84°
2026-05-06 08:55 52.26996 104.37295 1584 ft 11 kts 105°
2026-05-06 08:56 52.26969 104.37406 1585 ft 11 kts 113°
2026-05-06 08:56 52.26939 104.37519 1587 ft 11 kts 113°
2026-05-06 08:56 52.26909 104.37631 1589 ft 11 kts 113°
2026-05-06 08:56 52.26880 104.37740 1596 ft 10 kts 114°
2026-05-06 08:57 52.26852 104.37846 1594 ft 10 kts 113°
2026-05-06 08:57 52.26824 104.37949 1606 ft 10 kts 113°
2026-05-06 08:57 52.26796 104.38056 1606 ft 11 kts 114°
2026-05-06 08:57 52.26763 104.38179 1608 ft 13 kts 113°
2026-05-06 08:58 52.26726 104.38321 1610 ft 15 kts 113°
2026-05-06 08:58 52.26679 104.38494 1614 ft 19 kts 114°
2026-05-06 08:58 52.26625 104.38700 1621 ft 20 kts 113°
2026-05-06 08:58 52.26570 104.38907 1635 ft 19 kts 113°
2026-05-06 08:59 52.26522 104.39089 1643 ft 11 kts 113°
2026-05-06 08:59 52.26534 104.39172 1643 ft 7 kts 30°
2026-05-06 08:59 52.26593 104.39214 1642 ft 10 kts 24°
2026-05-06 08:59 52.26658 104.39265 1640 ft 11 kts 16°
2026-05-06 09:00 52.26732 104.39308 1634 ft 6 kts
2026-05-06 09:00 52.26761 104.39281 1634 ft 5 kts 300°
2026-05-06 09:00 52.26768 104.39255 1633 ft 0 kts 295°
2026-05-06 09:01 52.26815 104.39092 1629 ft 50 kts 294°
2026-05-06 09:01 52.27060 104.38169 1602 ft 124 kts 293°
2026-05-06 09:01 52.27476 104.36569 1671 ft 175 kts 293°
2026-05-06 09:01 52.28023 104.34715 2290 ft 186 kts 294°
2026-05-06 09:02 52.28560 104.32734 3119 ft 192 kts 292°
2026-05-06 09:02 52.29099 104.30648 3675 ft 213 kts 292°
2026-05-06 09:02 52.29964 104.28543 3858 ft 236 kts 322°
2026-05-06 09:02 52.31355 104.27029 4304 ft 245 kts 325°
2026-05-06 09:03 52.32840 104.25385 4514 ft 267 kts 324°
2026-05-06 09:03 52.34378 104.23651 5146 ft 269 kts 324°
2026-05-06 09:03 52.35887 104.21943 6089 ft 261 kts 324°
2026-05-06 09:03 52.37382 104.20247 6793 ft 262 kts 324°
2026-05-06 09:04 52.38889 104.18537 7415 ft 265 kts 324°
2026-05-06 09:04 52.40332 104.16705 7955 ft 267 kts 310°
2026-05-06 09:04 52.41219 104.14046 8558 ft 269 kts 285°
2026-05-06 09:04 52.41387 104.11002 9167 ft 272 kts 266°
2026-05-06 09:05 52.41185 104.07898 9770 ft 275 kts 264°
2026-05-06 09:05 52.40949 104.04768 10325 ft 278 kts 264°
2026-05-06 09:05 52.40705 104.01525 10498 ft 296 kts 264°
2026-05-06 09:05 52.40456 103.98078 10667 ft 314 kts 264°
2026-05-06 09:06 52.40197 103.94425 10799 ft 331 kts 264°
2026-05-06 09:06 52.39928 103.90593 10938 ft 346 kts 264°
2026-05-06 09:06 52.39648 103.86613 11267 ft 355 kts 264°
2026-05-06 09:06 52.39542 103.82573 11762 ft 358 kts 274°
2026-05-06 09:07 52.39822 103.78522 12328 ft 360 kts 277°
2026-05-06 09:07 52.40162 103.74444 12873 ft 363 kts 277°
2026-05-06 09:07 52.40507 103.70334 13424 ft 367 kts 277°
2026-05-06 09:07 52.40843 103.66180 13968 ft 370 kts 277°
2026-05-06 09:08 52.41169 103.61971 14482 ft 373 kts 276°
2026-05-06 09:08 52.41483 103.57797 15004 ft 376 kts 276°
2026-05-06 09:08 52.41797 103.53532 15536 ft 378 kts 276°
2026-05-06 09:08 52.42108 103.49242 16066 ft 381 kts 276°
2026-05-06 09:09 52.42420 103.44902 16578 ft 385 kts 276°
2026-05-06 09:09 52.42734 103.40524 17070 ft 388 kts 276°
2026-05-06 09:09 52.43047 103.36129 17574 ft 391 kts 276°
2026-05-06 09:09 52.43363 103.31689 18062 ft 394 kts 276°
2026-05-06 09:10 52.43679 103.27201 18495 ft 398 kts 276°
2026-05-06 09:10 52.43998 103.22678 18996 ft 399 kts 277°
2026-05-06 09:10 52.44704 103.18270 19393 ft 403 kts 295°
2026-05-06 09:10 52.46153 103.14335 19902 ft 404 kts 303°
2026-05-06 09:11 52.47718 103.10488 20361 ft 405 kts 303°
2026-05-06 09:11 52.49287 103.06637 20728 ft 409 kts 303°
2026-05-06 09:11 52.50865 103.02744 21182 ft 410 kts 303°
2026-05-06 09:11 52.52443 102.98827 21668 ft 410 kts 303°
2026-05-06 09:12 52.54017 102.94898 22061 ft 413 kts 303°
2026-05-06 09:12 52.55596 102.90935 22465 ft 415 kts 303°
2026-05-06 09:12 52.57175 102.86959 22914 ft 416 kts 303°
2026-05-06 09:12 52.58758 102.82961 23254 ft 419 kts 303°
2026-05-06 09:13 52.60352 102.78929 23579 ft 422 kts 303°
2026-05-06 09:13 52.61938 102.74910 23948 ft 423 kts 303°
2026-05-06 09:13 52.63556 102.70801 24298 ft 424 kts 303°
2026-05-06 09:13 52.65143 102.66767 24629 ft 425 kts 303°
2026-05-06 09:14 52.66744 102.62691 24964 ft 425 kts 304°
2026-05-06 09:14 52.68352 102.58590 25306 ft 426 kts 304°
2026-05-06 09:14 52.69954 102.54497 25639 ft 426 kts 304°
2026-05-06 09:14 52.71564 102.50378 25951 ft 427 kts 304°
2026-05-06 09:15 52.73170 102.46262 26256 ft 428 kts 304°
2026-05-06 09:15 52.74783 102.42121 26561 ft 428 kts 304°
2026-05-06 09:15 52.76394 102.37980 26865 ft 429 kts 304°
2026-05-06 09:15 52.78006 102.33830 27161 ft 430 kts 304°
2026-05-06 09:16 52.79622 102.29661 27438 ft 431 kts 305°
2026-05-06 09:16 52.81234 102.25495 27719 ft 431 kts 305°
2026-05-06 09:16 52.82848 102.21318 28060 ft 430 kts 305°
2026-05-06 09:16 52.84452 102.17160 28507 ft 427 kts 305°
2026-05-06 09:17 52.86038 102.13037 28974 ft 423 kts 305°
2026-05-06 09:17 52.87616 102.08932 29375 ft 421 kts 305°
2026-05-06 09:17 52.89187 102.04841 29731 ft 420 kts 305°
2026-05-06 09:17 52.90747 102.00771 30066 ft 419 kts 305°
2026-05-06 09:18 52.92285 101.96753 30362 ft 417 kts 305°
2026-05-06 09:18 52.93835 101.92697 30661 ft 415 kts 306°
2026-05-06 09:18 52.95381 101.88642 30915 ft 415 kts 306°
2026-05-06 09:18 52.96921 101.84600 31189 ft 414 kts 306°
2026-05-06 09:19 52.98452 101.80575 31456 ft 413 kts 306°
2026-05-06 09:19 52.99983 101.76541 31716 ft 412 kts 306°
2026-05-06 09:19 53.01501 101.72535 31979 ft 411 kts 306°
2026-05-06 09:19 53.03022 101.68515 32220 ft 410 kts 306°
2026-05-06 09:20 53.04540 101.64498 32463 ft 409 kts 306°
2026-05-06 09:20 53.06054 101.60484 32745 ft 408 kts 306°
2026-05-06 09:20 53.07558 101.56490 32981 ft 407 kts 306°
2026-05-06 09:20 53.09056 101.52508 33178 ft 407 kts 306°
2026-05-06 09:21 53.10561 101.48498 33337 ft 408 kts 306°
2026-05-06 09:21 53.12040 101.44554 33527 ft 408 kts 306°
2026-05-06 09:21 53.13535 101.40559 33767 ft 406 kts 306°
2026-05-06 09:21 53.15029 101.36560 34025 ft 404 kts 306°
2026-05-06 09:22 53.16516 101.32574 34037 ft 407 kts 306°
2026-05-06 09:22 53.19521 101.24504 34066 ft 411 kts 306°
2026-05-06 09:23 53.22540 101.16365 34064 ft 414 kts 306°
2026-05-06 09:23 53.25576 101.08159 34057 ft 417 kts 306°
2026-05-06 09:24 53.28621 100.99896 34071 ft 418 kts 305°
2026-05-06 09:24 53.31656 100.91623 34048 ft 417 kts 305°
2026-05-06 09:25 53.34678 100.83357 34070 ft 416 kts 305°
2026-05-06 09:25 53.37693 100.75092 34056 ft 415 kts 305°
2026-05-06 09:26 53.40690 100.66849 34065 ft 414 kts 305°
2026-05-06 09:26 53.43673 100.58618 34054 ft 412 kts 305°
2026-05-06 09:27 53.46637 100.50414 34066 ft 411 kts 305°
2026-05-06 09:27 53.49569 100.42273 34062 ft 409 kts 305°
2026-05-06 09:28 53.52504 100.34095 34063 ft 408 kts 305°
2026-05-06 09:28 53.55433 100.25907 34044 ft 407 kts 305°
2026-05-06 09:29 53.58348 100.17732 34052 ft 407 kts 305°
2026-05-06 09:29 53.61251 100.09564 34044 ft 406 kts 305°
2026-05-06 09:30 53.64144 100.01396 34056 ft 406 kts 304°
2026-05-06 09:30 53.67031 99.93219 34054 ft 405 kts 304°
2026-05-06 09:31 53.69906 99.85048 34044 ft 405 kts 304°
2026-05-06 09:31 53.72755 99.76925 34040 ft 404 kts 304°
2026-05-06 09:32 53.75605 99.68771 34042 ft 403 kts 304°
2026-05-06 09:32 53.78463 99.60571 34040 ft 403 kts 304°
2026-05-06 09:33 53.81302 99.52396 34037 ft 403 kts 304°
2026-05-06 09:33 53.84138 99.44203 34039 ft 403 kts 304°
2026-05-06 09:34 53.86965 99.36010 34053 ft 403 kts 304°
2026-05-06 09:34 53.89781 99.27821 34032 ft 404 kts 304°
2026-05-06 09:35 53.92603 99.19584 34029 ft 404 kts 304°
2026-05-06 09:35 53.95427 99.11317 34045 ft 404 kts 304°
2026-05-06 09:36 53.98239 99.03059 34031 ft 404 kts 304°
2026-05-06 09:36 54.01051 98.94775 34039 ft 404 kts 303°
2026-05-06 09:37 54.03854 98.86488 34037 ft 403 kts 303°
2026-05-06 09:37 54.06622 98.78267 34030 ft 401 kts 303°
2026-05-06 09:38 54.09389 98.70020 34034 ft 401 kts 303°
2026-05-06 09:38 54.12148 98.61775 34042 ft 401 kts 303°
2026-05-06 09:39 54.14906 98.53511 34035 ft 400 kts 303°
2026-05-06 09:39 54.17651 98.45254 34042 ft 400 kts 303°
2026-05-06 09:40 54.20401 98.36960 34037 ft 401 kts 303°
2026-05-06 09:40 54.24504 98.24526 34046 ft 400 kts 303°
2026-05-06 09:41 54.26773 98.17623 34044 ft 400 kts 303°
2026-05-06 09:41 54.29497 98.09313 34039 ft 401 kts 302°
2026-05-06 09:42 54.32215 98.00994 34043 ft 400 kts 302°
2026-05-06 09:42 54.34932 97.92648 34044 ft 400 kts 302°
2026-05-06 09:43 54.37626 97.84375 34045 ft 400 kts 302°
2026-05-06 09:43 54.40340 97.76027 34049 ft 400 kts 302°
2026-05-06 09:44 54.43048 97.67670 34043 ft 400 kts 302°
2026-05-06 09:44 54.45752 97.59294 34043 ft 400 kts 302°
2026-05-06 09:45 54.48447 97.50920 34047 ft 400 kts 301°
2026-05-06 09:45 54.51138 97.42528 34040 ft 401 kts 301°
2026-05-06 09:46 54.53807 97.34176 34047 ft 400 kts 301°
2026-05-06 09:46 54.56485 97.25764 34046 ft 401 kts 301°
2026-05-06 09:47 54.59159 97.17338 34044 ft 401 kts 301°
2026-05-06 09:47 54.61833 97.08883 34036 ft 401 kts 301°
2026-05-06 09:48 54.64506 97.00397 34052 ft 401 kts 301°
2026-05-06 09:48 54.67162 96.91939 34050 ft 401 kts 300°
2026-05-06 09:49 54.69823 96.83439 34045 ft 401 kts 300°
2026-05-06 09:49 54.72469 96.74958 34039 ft 401 kts 300°
2026-05-06 09:50 54.75098 96.66499 34053 ft 401 kts 300°
2026-05-06 09:50 54.77676 96.57926 34058 ft 402 kts 299°
2026-05-06 09:51 54.80221 96.49301 34054 ft 401 kts 299°
2026-05-06 09:51 54.82766 96.40667 34057 ft 402 kts 299°
2026-05-06 09:52 54.85311 96.32025 34046 ft 402 kts 298°
2026-05-06 09:52 54.87848 96.23387 34054 ft 402 kts 298°
2026-05-06 09:53 54.90389 96.14706 34063 ft 402 kts 298°
2026-05-06 09:53 54.92902 96.06091 34055 ft 402 kts 298°
2026-05-06 09:54 54.95429 95.97396 34067 ft 403 kts 298°
2026-05-06 09:54 54.97947 95.88698 34065 ft 403 kts 298°
2026-05-06 09:55 55.00467 95.79963 34061 ft 403 kts 298°
2026-05-06 09:55 55.02973 95.71240 34060 ft 403 kts 298°
2026-05-06 09:56 55.05474 95.62504 34065 ft 403 kts 298°
2026-05-06 09:56 55.07973 95.53742 34064 ft 402 kts 297°
2026-05-06 09:57 55.10460 95.44987 34059 ft 402 kts 297°
2026-05-06 09:57 55.12941 95.36223 34063 ft 402 kts 297°
2026-05-06 09:58 55.15402 95.27499 34055 ft 402 kts 297°
2026-05-06 09:58 55.17873 95.18703 34060 ft 402 kts 297°
2026-05-06 09:59 55.20334 95.09913 34051 ft 403 kts 297°
2026-05-06 09:59 55.22799 95.01076 34045 ft 403 kts 297°
2026-05-06 10:00 55.25252 94.92254 34043 ft 403 kts 297°
2026-05-06 10:00 55.27817 94.83601 34052 ft 402 kts 300°
2026-05-06 10:01 55.30667 94.75094 34048 ft 402 kts 301°
2026-05-06 10:01 55.33504 94.66682 34040 ft 403 kts 301°
2026-05-06 10:02 55.36341 94.58179 34036 ft 403 kts 300°
2026-05-06 10:02 55.39159 94.49669 34039 ft 403 kts 300°
2026-05-06 10:03 55.41974 94.41122 34031 ft 403 kts 300°
2026-05-06 10:03 55.44786 94.32557 34037 ft 403 kts 300°
2026-05-06 10:04 55.47575 94.24033 34033 ft 404 kts 300°
2026-05-06 10:04 55.50376 94.15438 34026 ft 404 kts 300°
2026-05-06 10:05 55.53173 94.06827 34034 ft 405 kts 300°
2026-05-06 10:05 55.55968 93.98191 34021 ft 405 kts 300°
2026-05-06 10:06 55.58756 93.89547 34022 ft 405 kts 300°
2026-05-06 10:06 55.61541 93.80880 34016 ft 405 kts 300°
2026-05-06 10:07 55.64318 93.72208 34018 ft 405 kts 300°
2026-05-06 10:07 55.67089 93.63521 34021 ft 405 kts 300°
2026-05-06 10:08 55.69833 93.54891 34014 ft 405 kts 300°
2026-05-06 10:08 55.72596 93.46176 34015 ft 405 kts 299°
2026-05-06 10:09 55.75340 93.37458 34011 ft 405 kts 299°
2026-05-06 10:09 55.78039 93.28667 34010 ft 405 kts 298°
2026-05-06 10:10 55.80724 93.19852 34004 ft 405 kts 298°
2026-05-06 10:10 55.83406 93.11037 34009 ft 405 kts 298°
2026-05-06 10:11 55.86087 93.02206 34002 ft 405 kts 298°
2026-05-06 10:11 55.88760 92.93375 34002 ft 405 kts 298°
2026-05-06 10:12 55.91411 92.84580 33993 ft 405 kts 298°
2026-05-06 10:12 55.94072 92.75721 33995 ft 404 kts 298°
2026-05-06 10:13 55.96721 92.66869 33999 ft 404 kts 298°
2026-05-06 10:13 55.99368 92.57998 33996 ft 404 kts 298°
2026-05-06 10:14 56.01994 92.49156 33994 ft 403 kts 298°
2026-05-06 10:14 56.04601 92.40347 33990 ft 403 kts 297°
2026-05-06 10:15 56.07214 92.31489 34004 ft 402 kts 297°
2026-05-06 10:15 56.09829 92.22598 33995 ft 402 kts 297°
2026-05-06 10:16 56.12428 92.13731 33989 ft 402 kts 297°
2026-05-06 10:16 56.15018 92.04858 33985 ft 402 kts 297°
2026-05-06 10:17 56.17604 91.95968 33987 ft 401 kts 297°
2026-05-06 10:17 56.20183 91.87068 33979 ft 401 kts 297°
2026-05-06 10:18 56.22753 91.78161 33982 ft 401 kts 297°
2026-05-06 10:18 56.25299 91.69307 33968 ft 401 kts 296°
2026-05-06 10:19 56.27855 91.60384 33976 ft 401 kts 296°
2026-05-06 10:19 56.30399 91.51469 33975 ft 400 kts 296°
2026-05-06 10:20 56.32940 91.42530 33970 ft 400 kts 296°
2026-05-06 10:20 56.35465 91.33611 33970 ft 400 kts 296°
2026-05-06 10:21 56.37990 91.24658 33958 ft 400 kts 296°
2026-05-06 10:21 56.40505 91.15707 33958 ft 400 kts 296°
2026-05-06 10:22 56.43000 91.06793 33958 ft 399 kts 295°
2026-05-06 10:22 56.45496 90.97840 33955 ft 399 kts 295°
2026-05-06 10:23 56.47995 90.88838 33956 ft 399 kts 295°
2026-05-06 10:23 56.50478 90.79864 33953 ft 399 kts 295°
2026-05-06 10:24 56.52961 90.70851 33956 ft 399 kts 295°
2026-05-06 10:24 56.55419 90.61894 33951 ft 399 kts 295°
2026-05-06 10:25 56.57901 90.52815 33950 ft 400 kts 295°
2026-05-06 10:25 56.60352 90.43813 33943 ft 400 kts 294°
2026-05-06 10:26 56.62812 90.34743 33943 ft 400 kts 294°
2026-05-06 10:26 56.65266 90.25657 33942 ft 400 kts 294°
2026-05-06 10:27 56.67710 90.16575 33947 ft 400 kts 294°
2026-05-06 10:27 56.70134 90.07528 33948 ft 400 kts 294°
2026-05-06 10:28 56.72583 89.98353 33809 ft 402 kts 292°
2026-05-06 10:28 56.75027 89.89153 33928 ft 405 kts 292°
2026-05-06 10:29 56.77478 89.79893 33949 ft 410 kts 292°
2026-05-06 10:29 56.79970 89.70438 33963 ft 415 kts 292°
2026-05-06 10:30 56.82479 89.60884 33941 ft 419 kts 292°
2026-05-06 10:30 56.85002 89.51235 33931 ft 420 kts 292°
2026-05-06 10:31 56.87492 89.41676 33928 ft 413 kts 292°
2026-05-06 10:31 56.89943 89.32224 33943 ft 411 kts 291°
2026-05-06 10:32 56.92369 89.22819 33936 ft 411 kts 291°
2026-05-06 10:32 56.94801 89.13354 33935 ft 411 kts 291°
2026-05-06 10:33 56.97230 89.03862 33938 ft 412 kts 291°
2026-05-06 10:33 56.99248 88.95945 33934 ft 413 kts 291°
2026-05-06 10:34 57.01675 88.86391 33933 ft 414 kts 291°
2026-05-06 10:34 57.04505 88.75191 33937 ft 417 kts 291°
2026-05-06 10:35 57.06543 88.67096 33926 ft 417 kts 291°
2026-05-06 10:35 57.08976 88.57387 33921 ft 419 kts 291°
2026-05-06 10:36 57.11394 88.47703 33924 ft 419 kts 291°
2026-05-06 10:36 57.13818 88.37958 33923 ft 419 kts 291°
2026-05-06 10:37 57.16233 88.28193 33921 ft 419 kts 290°
2026-05-06 10:37 57.18631 88.18427 33919 ft 419 kts 290°
2026-05-06 10:38 57.21024 88.08642 33917 ft 419 kts 290°
2026-05-06 10:38 57.23416 87.98823 33908 ft 419 kts 290°
2026-05-06 10:39 57.25799 87.88998 33915 ft 419 kts 290°
2026-05-06 10:39 57.28172 87.79175 33924 ft 419 kts 290°
2026-05-06 10:40 57.30532 87.69364 33912 ft 419 kts 290°
2026-05-06 10:40 57.32897 87.59481 33906 ft 420 kts 290°
2026-05-06 10:41 57.35254 87.49592 33916 ft 420 kts 289°
2026-05-06 10:41 57.37603 87.39687 33913 ft 420 kts 289°
2026-05-06 10:42 57.39950 87.29746 33910 ft 421 kts 289°
2026-05-06 10:42 57.42291 87.19788 33917 ft 421 kts 289°
2026-05-06 10:43 57.44627 87.09799 33911 ft 422 kts 289°
2026-05-06 10:44 57.48114 86.94809 33914 ft 422 kts 289°
2026-05-06 10:44 57.50421 86.84830 33908 ft 422 kts 289°
2026-05-06 10:45 57.52734 86.74776 33912 ft 423 kts 289°
2026-05-06 10:45 57.55046 86.64683 33912 ft 424 kts 289°
2026-05-06 10:46 57.57351 86.54573 33911 ft 424 kts 289°
2026-05-06 10:46 57.59653 86.44423 33913 ft 425 kts 289°
2026-05-06 10:47 57.61937 86.34306 33913 ft 426 kts 289°
2026-05-06 10:47 57.64232 86.24093 33912 ft 427 kts 288°
2026-05-06 10:48 57.66529 86.13821 33914 ft 428 kts 288°
2026-05-06 10:48 57.68817 86.03538 33906 ft 429 kts 288°
2026-05-06 10:49 57.71102 85.93218 33904 ft 430 kts 288°
2026-05-06 10:49 57.73368 85.82934 33912 ft 430 kts 288°
2026-05-06 10:50 57.75656 85.72500 33906 ft 431 kts 288°
2026-05-06 10:50 57.77916 85.62139 33911 ft 432 kts 288°
2026-05-06 10:51 57.80185 85.51683 33901 ft 433 kts 288°
2026-05-06 10:51 57.82454 85.41176 33905 ft 434 kts 289°
2026-05-06 10:52 57.84716 85.30650 33913 ft 435 kts 289°
2026-05-06 10:52 57.86974 85.20084 33899 ft 436 kts 289°
2026-05-06 10:53 57.89218 85.09535 33895 ft 437 kts 289°
2026-05-06 10:53 57.91466 84.98908 33903 ft 438 kts 289°
2026-05-06 10:54 57.93712 84.88239 33903 ft 439 kts 289°
2026-05-06 10:54 57.95952 84.77538 33905 ft 440 kts 289°
2026-05-06 10:55 57.98189 84.66794 33906 ft 441 kts 289°
2026-05-06 10:55 58.00423 84.56014 33907 ft 442 kts 289°
2026-05-06 10:56 58.02657 84.45172 33902 ft 443 kts 289°
2026-05-06 10:56 58.04870 84.34371 33893 ft 444 kts 289°
2026-05-06 10:57 58.07093 84.23469 33903 ft 445 kts 289°
2026-05-06 10:57 58.09309 84.12540 33900 ft 445 kts 289°
2026-05-06 10:58 58.11517 84.01590 33899 ft 446 kts 289°
2026-05-06 10:58 58.13727 83.90568 33900 ft 447 kts 289°
2026-05-06 10:59 58.15926 83.79540 33893 ft 448 kts 289°
2026-05-06 10:59 58.18116 83.68495 33897 ft 448 kts 289°
2026-05-06 11:00 58.20303 83.57407 33892 ft 450 kts 289°
2026-05-06 11:00 58.22483 83.46291 33894 ft 450 kts 289°
2026-05-06 11:01 58.24650 83.35180 33891 ft 451 kts 289°
2026-05-06 11:01 58.26818 83.24001 33891 ft 452 kts 289°
2026-05-06 11:02 58.28446 83.15566 33888 ft 452 kts 289°
2026-05-06 11:06 58.28695 83.14270 33890 ft 452 kts 289°
2026-05-06 11:07 58.30693 83.03872 33893 ft 453 kts 289°
2026-05-06 11:07 58.32853 82.92602 33892 ft 453 kts 290°
2026-05-06 11:08 58.35253 82.81472 33889 ft 454 kts 293°
2026-05-06 11:08 58.37761 82.70415 33893 ft 455 kts 293°
2026-05-06 11:09 58.40248 82.59332 33893 ft 455 kts 293°
2026-05-06 11:09 58.42703 82.48216 33889 ft 455 kts 292°
2026-05-06 11:10 58.45139 82.37080 33893 ft 455 kts 292°
2026-05-06 11:10 58.47571 82.25902 33894 ft 455 kts 292°
2026-05-06 11:11 58.49994 82.14703 33892 ft 455 kts 292°
2026-05-06 11:11 58.52410 82.03483 33892 ft 455 kts 292°
2026-05-06 11:12 58.54810 81.92276 33889 ft 455 kts 292°
2026-05-06 11:12 58.57199 81.81060 33895 ft 455 kts 292°
2026-05-06 11:13 58.59561 81.69911 33890 ft 455 kts 292°
2026-05-06 11:13 58.61930 81.58672 33893 ft 454 kts 292°
2026-05-06 11:14 58.64292 81.47398 33899 ft 454 kts 292°
2026-05-06 11:14 58.66637 81.36150 33897 ft 454 kts 292°
2026-05-06 11:15 58.68979 81.24864 33888 ft 454 kts 292°
2026-05-06 11:15 58.71291 81.13653 33908 ft 453 kts 292°
2026-05-06 11:16 58.73612 81.02392 33891 ft 453 kts 292°
2026-05-06 11:16 58.75931 80.91105 33902 ft 452 kts 292°
2026-05-06 11:17 58.78235 80.79836 33900 ft 452 kts 291°
2026-05-06 11:17 58.80528 80.68550 33896 ft 452 kts 291°
2026-05-06 11:18 58.82811 80.57255 33908 ft 451 kts 291°
2026-05-06 11:18 58.85078 80.45976 33900 ft 451 kts 291°
2026-05-06 11:19 58.87341 80.34661 33904 ft 450 kts 291°
2026-05-06 11:19 58.89568 80.23372 33888 ft 449 kts 290°
2026-05-06 11:20 58.91760 80.12125 33895 ft 449 kts 290°
2026-05-06 11:20 58.93950 80.00833 33896 ft 448 kts 290°
2026-05-06 11:21 58.96134 79.89529 33908 ft 448 kts 290°
2026-05-06 11:21 58.98312 79.78197 33904 ft 447 kts 290°
2026-05-06 11:22 59.00470 79.66900 33907 ft 447 kts 290°
2026-05-06 11:22 59.02259 79.57490 33902 ft 447 kts 290°
2026-05-06 11:23 59.04398 79.46174 33911 ft 446 kts 290°
2026-05-06 11:23 59.06527 79.34848 33906 ft 446 kts 290°
2026-05-06 11:24 59.08640 79.23539 33902 ft 445 kts 289°
2026-05-06 11:24 59.10742 79.12220 33906 ft 445 kts 289°
2026-05-06 11:25 59.12839 79.00863 33900 ft 444 kts 289°
2026-05-06 11:25 59.14917 78.89545 33904 ft 444 kts 289°
2026-05-06 11:26 59.16984 78.78213 33908 ft 443 kts 289°
2026-05-06 11:26 59.19023 78.66971 33897 ft 443 kts 289°
2026-05-06 11:27 59.21066 78.55638 33905 ft 442 kts 289°
2026-05-06 11:27 59.23095 78.44315 33909 ft 442 kts 289°
2026-05-06 11:28 59.25112 78.32990 33902 ft 441 kts 289°
2026-05-06 11:28 59.27121 78.21644 33912 ft 441 kts 289°
2026-05-06 11:29 59.29115 78.10313 33912 ft 440 kts 289°
2026-05-06 11:29 59.31095 77.98988 33907 ft 440 kts 289°
2026-05-06 11:30 59.33073 77.87609 33899 ft 440 kts 288°
2026-05-06 11:30 59.35029 77.76286 33907 ft 439 kts 288°
2026-05-06 11:31 59.36967 77.65004 33904 ft 439 kts 288°
2026-05-06 11:31 59.38912 77.53608 33908 ft 438 kts 288°
2026-05-06 11:32 59.40823 77.42335 33897 ft 438 kts 288°
2026-05-06 11:32 59.42735 77.30988 33908 ft 437 kts 288°
2026-05-06 11:33 59.44638 77.19633 33910 ft 437 kts 288°
2026-05-06 11:33 59.46533 77.08265 33891 ft 437 kts 288°
2026-05-06 11:34 59.48413 76.96899 33908 ft 437 kts 288°
2026-05-06 11:34 59.50299 76.85531 33872 ft 437 kts 288°
2026-05-06 11:35 59.52173 76.74232 33874 ft 437 kts 288°
2026-05-06 11:35 59.54053 76.62832 33873 ft 436 kts 288°
2026-05-06 11:36 59.55917 76.51447 33878 ft 436 kts 288°
2026-05-06 11:36 59.57756 76.40042 33870 ft 436 kts 287°
2026-05-06 11:37 59.59567 76.28628 33872 ft 436 kts 287°
2026-05-06 11:37 59.61363 76.17248 33884 ft 436 kts 287°
2026-05-06 11:38 59.63158 76.05829 33864 ft 436 kts 287°
2026-05-06 11:38 59.64948 75.94371 33868 ft 436 kts 287°
2026-05-06 11:39 59.66728 75.82901 33868 ft 436 kts 287°
2026-05-06 11:39 59.68495 75.71438 33880 ft 436 kts 287°
2026-05-06 11:40 59.70257 75.59932 33876 ft 436 kts 287°
2026-05-06 11:40 59.71994 75.48514 33883 ft 436 kts 286°
2026-05-06 11:41 59.73736 75.37006 33867 ft 436 kts 286°
2026-05-06 11:41 59.75547 75.25558 33864 ft 435 kts 290°
2026-05-06 11:42 59.77808 75.14427 33864 ft 435 kts 292°
2026-05-06 11:42 59.78204 75.12532 33865 ft 435 kts 292°
2026-05-06 11:43 59.84358 74.82670 33854 ft 435 kts 291°
2026-05-06 11:44 59.86986 74.69634 33856 ft 435 kts 291°
2026-05-06 11:44 59.89715 74.55994 33862 ft 435 kts 291°
2026-05-06 11:45 59.92504 74.41962 33852 ft 435 kts 291°
2026-05-06 11:45 59.94725 74.30723 33850 ft 435 kts 290°
2026-05-06 11:46 59.96931 74.19488 33850 ft 435 kts 290°
2026-05-06 11:46 59.99129 74.08237 33845 ft 435 kts 290°
2026-05-06 11:47 60.01307 73.97023 33841 ft 435 kts 290°
2026-05-06 11:47 60.03482 73.85757 33839 ft 435 kts 290°
2026-05-06 11:48 60.05652 73.74454 33836 ft 435 kts 290°
2026-05-06 11:48 60.07811 73.63143 33834 ft 434 kts 290°
2026-05-06 11:49 60.09959 73.51829 33832 ft 434 kts 290°
2026-05-06 11:49 60.12099 73.40488 33828 ft 434 kts 290°
2026-05-06 11:50 60.14222 73.29167 33826 ft 434 kts 289°
2026-05-06 11:50 60.16324 73.17899 33823 ft 433 kts 289°
2026-05-06 11:51 60.18428 73.06549 33829 ft 433 kts 289°
2026-05-06 11:51 60.20520 72.95204 33820 ft 433 kts 289°
2026-05-06 11:52 60.22601 72.83845 33819 ft 432 kts 289°
2026-05-06 11:52 60.24673 72.72468 33818 ft 432 kts 289°
2026-05-06 11:53 60.26730 72.61107 33810 ft 432 kts 289°
2026-05-06 11:53 60.28776 72.49739 33809 ft 431 kts 289°
2026-05-06 11:54 60.30799 72.38434 33805 ft 431 kts 288°
2026-05-06 11:54 60.32821 72.27060 33803 ft 430 kts 288°
2026-05-06 11:55 60.34834 72.15673 33802 ft 430 kts 288°
2026-05-06 11:55 60.36831 72.04307 33797 ft 429 kts 288°
2026-05-06 11:56 60.38818 71.92935 33795 ft 429 kts 288°
2026-05-06 11:56 60.40792 71.81562 33792 ft 428 kts 288°
2026-05-06 11:57 60.42752 71.70199 33788 ft 427 kts 288°
2026-05-06 11:57 60.44699 71.58844 33782 ft 427 kts 288°
2026-05-06 11:58 60.46640 71.47452 33784 ft 427 kts 287°
2026-05-06 11:58 60.48556 71.36134 33781 ft 427 kts 287°
2026-05-06 11:59 60.50486 71.24668 33782 ft 427 kts 287°
2026-05-06 11:59 60.52393 71.13263 33779 ft 427 kts 287°
2026-05-06 12:00 60.54295 71.01824 33772 ft 427 kts 287°
2026-05-06 12:00 60.56174 70.90448 33775 ft 427 kts 287°
2026-05-06 12:01 60.58049 70.79026 33772 ft 426 kts 287°
2026-05-06 12:01 60.59918 70.67574 33773 ft 426 kts 287°
2026-05-06 12:02 60.61777 70.56123 33775 ft 425 kts 287°
2026-05-06 12:02 60.63973 70.44967 33767 ft 426 kts 298°
2026-05-06 12:03 60.67132 70.34759 33774 ft 426 kts 300°
2026-05-06 12:03 60.70289 70.24619 33775 ft 425 kts 299°
2026-05-06 12:04 60.73425 70.14386 33775 ft 424 kts 299°
2026-05-06 12:04 60.76536 70.04157 33770 ft 424 kts 298°
2026-05-06 12:05 60.79640 69.93907 33769 ft 423 kts 298°
2026-05-06 12:05 60.82706 69.83622 33770 ft 423 kts 298°
2026-05-06 12:06 60.85734 69.73295 33765 ft 423 kts 297°
2026-05-06 12:06 60.88763 69.62937 33765 ft 423 kts 297°
2026-05-06 12:07 60.91786 69.52576 33758 ft 423 kts 297°
2026-05-06 12:07 60.94803 69.42195 33749 ft 423 kts 297°
2026-05-06 12:08 60.97821 69.31766 33750 ft 424 kts 297°
2026-05-06 12:08 61.00832 69.21312 33751 ft 424 kts 297°
2026-05-06 12:09 61.03263 69.10347 33728 ft 420 kts 284°
2026-05-06 12:09 61.04313 68.98564 33725 ft 418 kts 276°
2026-05-06 12:10 61.05049 68.86705 33723 ft 419 kts 276°
2026-05-06 12:10 61.05807 68.74749 33732 ft 419 kts 276°
2026-05-06 12:11 61.06573 68.62825 33735 ft 420 kts 276°
2026-05-06 12:11 61.07336 68.50860 33739 ft 419 kts 276°
2026-05-06 12:12 61.08088 68.38919 33741 ft 419 kts 276°
2026-05-06 12:12 61.08829 68.26981 33741 ft 419 kts 276°
2026-05-06 12:13 61.09554 68.15034 33741 ft 418 kts 276°
2026-05-06 12:13 61.10253 68.03195 33745 ft 417 kts 276°
2026-05-06 12:14 61.10950 67.91244 33742 ft 416 kts 275°
2026-05-06 12:14 61.11630 67.79437 33748 ft 416 kts 275°
2026-05-06 12:15 61.12306 67.67546 33738 ft 415 kts 275°
2026-05-06 12:15 61.12771 67.59243 33745 ft 415 kts 275°
2026-05-06 12:16 61.13423 67.47456 33748 ft 414 kts 275°
2026-05-06 12:16 61.13963 67.37540 33752 ft 414 kts 275°
2026-05-06 12:17 61.14599 67.25678 33748 ft 414 kts 275°
2026-05-06 12:17 61.15224 67.13827 33760 ft 414 kts 275°
2026-05-06 12:18 61.15836 67.02038 33746 ft 414 kts 275°
2026-05-06 12:18 61.16441 66.90188 33754 ft 413 kts 275°
2026-05-06 12:19 61.17034 66.78345 33752 ft 413 kts 275°
2026-05-06 12:19 61.17616 66.66510 33756 ft 413 kts 274°
2026-05-06 12:20 61.18189 66.54651 33752 ft 413 kts 274°
2026-05-06 12:20 61.18751 66.42791 33754 ft 413 kts 274°
2026-05-06 12:21 61.19304 66.30905 33757 ft 413 kts 274°
2026-05-06 12:21 61.19845 66.19059 33753 ft 413 kts 274°
2026-05-06 12:22 61.20375 66.07213 33755 ft 413 kts 274°
2026-05-06 12:22 61.20894 65.95367 33751 ft 413 kts 274°
2026-05-06 12:23 61.21406 65.83452 33751 ft 414 kts 273°
2026-05-06 12:23 61.21904 65.71634 33747 ft 414 kts 273°
2026-05-06 12:24 61.22395 65.59702 33753 ft 415 kts 273°
2026-05-06 12:24 61.22877 65.47753 33748 ft 416 kts 273°
2026-05-06 12:25 61.23349 65.35771 33748 ft 416 kts 273°
2026-05-06 12:25 61.23811 65.23786 33747 ft 417 kts 273°
2026-05-06 12:26 61.24262 65.11796 33749 ft 417 kts 273°
2026-05-06 12:26 61.24705 64.99743 33746 ft 418 kts 272°
2026-05-06 12:27 61.25138 64.87703 33746 ft 419 kts 272°
2026-05-06 12:27 61.25561 64.75618 33744 ft 419 kts 272°
2026-05-06 12:28 61.25974 64.63606 33744 ft 420 kts 272°
2026-05-06 12:28 61.26376 64.51489 33742 ft 420 kts 272°
2026-05-06 12:29 61.26777 64.39374 33743 ft 421 kts 272°
2026-05-06 12:29 61.27176 64.27213 33738 ft 421 kts 272°
2026-05-06 12:30 61.27564 64.15087 33741 ft 421 kts 272°
2026-05-06 12:30 61.27943 64.02906 33734 ft 422 kts 272°
2026-05-06 12:31 61.28308 63.90817 33739 ft 422 kts 272°
2026-05-06 12:31 61.28668 63.78610 33734 ft 422 kts 272°
2026-05-06 12:32 61.29024 63.66427 33733 ft 422 kts 274°
2026-05-06 12:32 61.29918 63.54320 33735 ft 423 kts 278°
2026-05-06 12:33 61.30967 63.42258 33734 ft 423 kts 278°
2026-05-06 12:33 61.31986 63.30191 33738 ft 423 kts 278°
2026-05-06 12:34 61.32972 63.18113 33727 ft 423 kts 278°
2026-05-06 12:34 61.33933 63.06130 33729 ft 423 kts 278°
2026-05-06 12:35 61.34890 62.94070 33731 ft 422 kts 278°
2026-05-06 12:35 61.35839 62.81986 33727 ft 422 kts 278°
2026-05-06 12:36 61.36778 62.69892 33728 ft 422 kts 278°
2026-05-06 12:36 61.37706 62.57826 33726 ft 422 kts 278°
2026-05-06 12:37 61.38634 62.45742 33720 ft 421 kts 277°
2026-05-06 12:37 61.39553 62.33658 33724 ft 421 kts 277°
2026-05-06 12:38 61.40460 62.21585 33721 ft 421 kts 277°
2026-05-06 12:38 61.41359 62.09477 33720 ft 421 kts 277°
2026-05-06 12:39 61.42242 61.97420 33715 ft 420 kts 277°
2026-05-06 12:39 61.43110 61.85428 33719 ft 420 kts 277°
2026-05-06 12:40 61.43973 61.73344 33722 ft 420 kts 277°
2026-05-06 12:40 61.44823 61.61290 33709 ft 419 kts 277°
2026-05-06 12:41 61.45664 61.49202 33703 ft 419 kts 277°
2026-05-06 12:41 61.46494 61.37136 33713 ft 419 kts 277°
2026-05-06 12:42 61.47315 61.25064 33706 ft 419 kts 277°
2026-05-06 12:42 61.48123 61.12978 33705 ft 419 kts 277°
2026-05-06 12:43 61.48918 61.00972 33715 ft 419 kts 277°
2026-05-06 12:43 61.49710 60.88900 33717 ft 419 kts 276°
2026-05-06 12:44 61.50493 60.76821 33722 ft 419 kts 276°
2026-05-06 12:44 61.51265 60.64738 33721 ft 419 kts 276°
2026-05-06 12:45 61.52027 60.52640 33707 ft 419 kts 276°
2026-05-06 12:46 61.53148 60.34514 33711 ft 418 kts 276°
2026-05-06 12:46 61.53880 60.22476 33711 ft 418 kts 276°
2026-05-06 12:47 61.54612 60.10287 33710 ft 418 kts 276°
2026-05-06 12:47 61.55320 59.98262 33714 ft 418 kts 276°
2026-05-06 12:48 61.56022 59.86150 33718 ft 418 kts 276°
2026-05-06 12:48 61.56714 59.74061 33714 ft 418 kts 276°
2026-05-06 12:49 61.57399 59.61952 33715 ft 418 kts 275°
2026-05-06 12:49 61.58075 59.49826 33725 ft 417 kts 275°
2026-05-06 12:50 61.58740 59.37709 33734 ft 417 kts 275°
2026-05-06 12:50 61.59389 59.25679 33721 ft 417 kts 275°
2026-05-06 12:51 61.60032 59.13541 33712 ft 418 kts 275°
2026-05-06 12:51 61.60665 59.01401 33719 ft 418 kts 275°
2026-05-06 12:52 61.61286 58.89269 33720 ft 418 kts 275°
2026-05-06 12:52 61.61893 58.77217 33732 ft 418 kts 275°
2026-05-06 12:53 61.62495 58.65066 33720 ft 418 kts 275°
2026-05-06 12:53 61.62994 58.54869 33719 ft 418 kts 275°
2026-05-06 12:54 61.63518 58.43995 33720 ft 417 kts 275°
2026-05-06 12:54 61.64165 58.31845 33717 ft 417 kts 275°
2026-05-06 12:55 61.64823 58.19738 33714 ft 416 kts 275°
2026-05-06 12:55 61.65467 58.07644 33722 ft 416 kts 275°
2026-05-06 12:56 61.66096 57.95538 33716 ft 415 kts 275°
2026-05-06 12:56 61.66711 57.83455 33714 ft 414 kts 275°
2026-05-06 12:57 61.67309 57.71482 33713 ft 414 kts 275°
2026-05-06 12:57 61.67900 57.59440 33710 ft 413 kts 275°
2026-05-06 12:58 61.68479 57.47415 33700 ft 413 kts 274°
2026-05-06 12:58 61.69049 57.35353 33711 ft 412 kts 274°
2026-05-06 12:59 61.69607 57.23343 33709 ft 412 kts 274°
2026-05-06 12:59 61.70154 57.11304 33705 ft 412 kts 274°
2026-05-06 13:00 61.70690 56.99285 33705 ft 412 kts 274°
2026-05-06 13:00 61.71216 56.87242 33701 ft 412 kts 274°
2026-05-06 13:01 61.71730 56.75234 33705 ft 411 kts 274°
2026-05-06 13:01 61.72232 56.63275 33706 ft 411 kts 274°
2026-05-06 13:02 61.72725 56.51260 33703 ft 411 kts 274°
2026-05-06 13:02 61.73209 56.39220 33700 ft 411 kts 273°
2026-05-06 13:03 61.73681 56.27207 33695 ft 411 kts 273°
2026-05-06 13:03 61.74065 56.17213 33700 ft 411 kts 273°
2026-05-06 13:04 61.74517 56.05190 33695 ft 411 kts 273°
2026-05-06 13:04 61.75030 55.91217 33696 ft 411 kts 273°
2026-05-06 13:05 61.75391 55.81137 33695 ft 411 kts 272°
2026-05-06 13:05 61.75809 55.69209 33696 ft 411 kts 272°
2026-05-06 13:06 61.76222 55.57097 33684 ft 410 kts 272°
2026-05-06 13:06 61.76619 55.45160 33682 ft 410 kts 272°
2026-05-06 13:07 61.77008 55.33151 33686 ft 410 kts 272°
2026-05-06 13:07 61.77387 55.21128 33681 ft 410 kts 272°
2026-05-06 13:08 61.77755 55.09111 33669 ft 409 kts 272°
2026-05-06 13:08 61.78113 54.97100 33679 ft 409 kts 272°
2026-05-06 13:09 61.78462 54.85127 33666 ft 409 kts 272°
2026-05-06 13:09 61.78799 54.73122 33668 ft 409 kts 272°
2026-05-06 13:10 61.79139 54.61197 33662 ft 409 kts 272°
2026-05-06 13:10 61.79483 54.49211 33669 ft 409 kts 272°
2026-05-06 13:11 61.79818 54.37226 33656 ft 409 kts 271°
2026-05-06 13:11 61.80141 54.25255 33672 ft 408 kts 271°
2026-05-06 13:12 61.80455 54.13233 33673 ft 408 kts 271°
2026-05-06 13:12 61.80758 54.01221 33656 ft 408 kts 271°
2026-05-06 13:13 61.81050 53.89230 33658 ft 408 kts 271°
2026-05-06 13:13 61.81332 53.77245 33655 ft 408 kts 271°
2026-05-06 13:14 61.81603 53.65272 33651 ft 408 kts 271°
2026-05-06 13:14 61.81866 53.53278 33659 ft 408 kts 270°
2026-05-06 13:15 61.82116 53.41357 33654 ft 408 kts 270°
2026-05-06 13:15 61.82357 53.29387 33658 ft 408 kts 270°
2026-05-06 13:16 61.82594 53.17404 33658 ft 407 kts 270°
2026-05-06 13:16 61.82822 53.05427 33654 ft 407 kts 270°
2026-05-06 13:17 61.83041 52.93427 33654 ft 408 kts 270°
2026-05-06 13:17 61.83249 52.81448 33652 ft 408 kts 270°
2026-05-06 13:18 61.83448 52.69446 33648 ft 407 kts 270°
2026-05-06 13:18 61.83635 52.57487 33652 ft 406 kts 269°
2026-05-06 13:19 61.83812 52.45643 33652 ft 405 kts 269°
2026-05-06 13:19 61.83980 52.33741 33650 ft 404 kts 269°
2026-05-06 13:20 61.84087 52.21879 33651 ft 402 kts 268°
2026-05-06 13:20 61.84115 52.10066 33648 ft 401 kts 268°
2026-05-06 13:21 61.84141 51.98217 33642 ft 401 kts 268°
2026-05-06 13:21 61.84166 51.86424 33651 ft 399 kts 268°
2026-05-06 13:22 61.84186 51.74672 33656 ft 398 kts 268°
2026-05-06 13:22 61.84192 51.63031 33649 ft 397 kts 268°
2026-05-06 13:23 61.84182 51.51270 33650 ft 397 kts 268°
2026-05-06 13:23 61.84162 51.39651 33667 ft 396 kts 267°
2026-05-06 13:24 61.84135 51.27980 33656 ft 396 kts 267°
2026-05-06 13:24 61.84100 51.16338 33669 ft 394 kts 267°
2026-05-06 13:25 61.84055 51.04742 33672 ft 394 kts 267°
2026-05-06 13:25 61.84001 50.93141 33681 ft 393 kts 267°
2026-05-06 13:26 61.83937 50.81568 33681 ft 393 kts 266°
2026-05-06 13:26 61.83863 50.69983 33676 ft 393 kts 266°
2026-05-06 13:27 61.83781 50.58490 33678 ft 393 kts 266°
2026-05-06 13:27 61.83688 50.46937 33675 ft 393 kts 266°
2026-05-06 13:28 61.83586 50.35367 33678 ft 393 kts 266°
2026-05-06 13:28 61.83474 50.23803 33676 ft 393 kts 266°
2026-05-06 13:29 61.83352 50.12226 33679 ft 393 kts 266°
2026-05-06 13:29 61.83221 50.00672 33681 ft 393 kts 266°
2026-05-06 13:30 61.83083 49.89107 33686 ft 393 kts 266°
2026-05-06 13:30 61.82934 49.77564 33692 ft 393 kts 265°
2026-05-06 13:31 61.82833 49.66003 33694 ft 393 kts 266°
2026-05-06 13:31 61.82813 49.54495 33692 ft 393 kts 266°
2026-05-06 13:32 61.82773 49.42913 33699 ft 393 kts 266°
2026-05-06 13:32 61.82687 49.31358 33704 ft 393 kts 265°
2026-05-06 13:33 61.82535 49.19827 33706 ft 392 kts 265°
2026-05-06 13:33 61.82371 49.08268 33713 ft 392 kts 265°
2026-05-06 13:34 61.82205 48.96738 33712 ft 392 kts 265°
2026-05-06 13:34 61.82034 48.85220 33713 ft 392 kts 265°
2026-05-06 13:35 61.81853 48.73670 33719 ft 392 kts 265°
2026-05-06 13:35 61.81664 48.62197 33716 ft 392 kts 265°
2026-05-06 13:36 61.81465 48.50674 33719 ft 392 kts 265°
2026-05-06 13:36 61.81256 48.39151 33718 ft 392 kts 265°
2026-05-06 13:37 61.81038 48.27625 33722 ft 392 kts 264°
2026-05-06 13:37 61.80809 48.16096 33723 ft 392 kts 264°
2026-05-06 13:38 61.80571 48.04565 33721 ft 392 kts 264°
2026-05-06 13:38 61.80324 47.93041 33725 ft 392 kts 264°
2026-05-06 13:39 61.80067 47.81510 33725 ft 392 kts 264°
2026-05-06 13:39 61.79801 47.69999 33733 ft 392 kts 264°
2026-05-06 13:40 61.79526 47.58466 33734 ft 392 kts 264°
2026-05-06 13:40 61.79243 47.46937 33736 ft 392 kts 264°
2026-05-06 13:41 61.78951 47.35511 33738 ft 392 kts 264°
2026-05-06 13:41 61.78666 47.24024 33737 ft 392 kts 264°
2026-05-06 13:42 61.78373 47.12498 33740 ft 392 kts 264°
2026-05-06 13:42 61.78028 47.00998 33738 ft 392 kts 263°
2026-05-06 13:43 61.77620 46.89509 33743 ft 392 kts 263°
2026-05-06 13:43 61.77206 46.78026 33746 ft 392 kts 263°
2026-05-06 13:44 61.76789 46.66547 33752 ft 392 kts 263°
2026-05-06 13:44 61.76366 46.55059 33744 ft 392 kts 263°
2026-05-06 13:45 61.75936 46.43625 33751 ft 392 kts 263°
2026-05-06 13:45 61.75273 46.26455 33741 ft 391 kts 263°
2026-05-06 13:46 61.74817 46.14986 33760 ft 391 kts 263°
2026-05-06 13:46 61.74354 46.03550 33746 ft 391 kts 262°
2026-05-06 13:47 61.73885 45.92207 33758 ft 390 kts 262°
2026-05-06 13:47 61.73401 45.80751 33749 ft 390 kts 262°
2026-05-06 13:48 61.72913 45.69409 33753 ft 390 kts 262°
2026-05-06 13:48 61.72414 45.58038 33761 ft 389 kts 262°
2026-05-06 13:49 61.71906 45.46673 33759 ft 389 kts 262°
2026-05-06 13:49 61.71393 45.35392 33749 ft 389 kts 262°
2026-05-06 13:50 61.70865 45.23981 33763 ft 389 kts 262°
2026-05-06 13:50 61.70334 45.12682 33757 ft 389 kts 262°
2026-05-06 13:51 61.69794 45.01356 33763 ft 389 kts 262°
2026-05-06 13:51 61.69265 44.90026 33767 ft 389 kts 262°
2026-05-06 13:52 61.68822 44.80596 33769 ft 389 kts 262°
2026-05-06 13:52 61.68281 44.69265 33766 ft 389 kts 262°
2026-05-06 13:53 61.67731 44.57953 33768 ft 389 kts 262°
2026-05-06 13:53 61.67171 44.46633 33778 ft 388 kts 262°
2026-05-06 13:54 61.66602 44.35317 33781 ft 388 kts 262°
2026-05-06 13:54 61.66023 44.24013 33773 ft 388 kts 262°
2026-05-06 13:55 61.65436 44.12711 33776 ft 388 kts 261°
2026-05-06 13:55 61.64843 44.01500 33781 ft 388 kts 262°
2026-05-06 13:56 61.64238 43.90236 33783 ft 388 kts 262°
2026-05-06 13:56 61.63624 43.78975 33783 ft 388 kts 261°
2026-05-06 13:57 61.63001 43.67716 33782 ft 387 kts 261°
2026-05-06 13:57 61.62369 43.56466 33788 ft 387 kts 261°
2026-05-06 13:58 61.61726 43.45209 33787 ft 387 kts 261°
2026-05-06 13:58 61.61077 43.33999 33788 ft 387 kts 261°
2026-05-06 13:59 61.60418 43.22765 33800 ft 387 kts 261°
2026-05-06 13:59 61.59750 43.11556 33800 ft 387 kts 261°
2026-05-06 14:00 61.59077 43.00420 33801 ft 386 kts 261°
2026-05-06 14:00 61.58392 42.89228 33800 ft 386 kts 261°
2026-05-06 14:01 61.57698 42.78053 33804 ft 386 kts 261°
2026-05-06 14:01 61.56996 42.66885 33803 ft 386 kts 261°
2026-05-06 14:02 61.56286 42.55725 33810 ft 386 kts 261°
2026-05-06 14:02 61.55568 42.44555 33811 ft 385 kts 261°
2026-05-06 14:03 61.54833 42.33430 33813 ft 385 kts 259°
2026-05-06 14:03 61.53632 42.22528 33820 ft 383 kts 255°
2026-05-06 14:04 61.52295 42.11702 33816 ft 384 kts 255°
2026-05-06 14:04 61.50959 42.00884 33816 ft 384 kts 255°
2026-05-06 14:05 61.49625 41.90053 33823 ft 384 kts 255°
2026-05-06 14:05 61.48289 41.79234 33824 ft 384 kts 255°
2026-05-06 14:06 61.46953 41.68479 33823 ft 384 kts 255°
2026-05-06 14:06 61.45599 41.57650 33827 ft 384 kts 255°
2026-05-06 14:07 61.44237 41.46843 33829 ft 385 kts 255°
2026-05-06 14:07 61.42863 41.36021 33830 ft 385 kts 255°
2026-05-06 14:08 61.41483 41.25221 33828 ft 385 kts 255°
2026-05-06 14:08 61.40098 41.14463 33837 ft 385 kts 255°
2026-05-06 14:09 61.38698 41.03667 33836 ft 386 kts 255°
2026-05-06 14:09 61.37288 40.92865 33840 ft 386 kts 255°
2026-05-06 14:10 61.35869 40.82067 33841 ft 386 kts 255°
2026-05-06 14:10 61.34443 40.71296 33841 ft 386 kts 255°
2026-05-06 14:11 61.33002 40.60483 33844 ft 386 kts 255°
2026-05-06 14:11 61.31559 40.49727 33852 ft 386 kts 255°
2026-05-06 14:12 61.30105 40.38960 33852 ft 386 kts 255°
2026-05-06 14:12 61.28638 40.28176 33850 ft 387 kts 255°
2026-05-06 14:13 61.27176 40.17499 33855 ft 387 kts 255°
2026-05-06 14:13 61.25695 40.06759 33861 ft 387 kts 255°
2026-05-06 14:14 61.24205 39.96022 33861 ft 387 kts 255°
2026-05-06 14:14 61.22708 39.85306 33860 ft 387 kts 255°
2026-05-06 14:15 61.21202 39.74592 33866 ft 386 kts 255°
2026-05-06 14:15 61.19687 39.63888 33866 ft 386 kts 255°
2026-05-06 14:16 61.18165 39.53200 33865 ft 386 kts 255°
2026-05-06 14:16 61.16641 39.42572 33870 ft 386 kts 255°
2026-05-06 14:17 61.15105 39.31924 33870 ft 386 kts 255°
2026-05-06 14:17 61.13559 39.21277 33872 ft 386 kts 254°
2026-05-06 14:18 61.12003 39.10633 33875 ft 386 kts 254°
2026-05-06 14:18 61.10441 39.00006 33876 ft 386 kts 254°
2026-05-06 14:19 61.08872 38.89397 33881 ft 386 kts 254°
2026-05-06 14:19 61.07294 38.78798 33881 ft 386 kts 254°
2026-05-06 14:20 61.05718 38.68252 33882 ft 386 kts 254°
2026-05-06 14:20 61.04265 38.58607 33883 ft 386 kts 254°
2026-05-06 14:21 61.02659 38.48041 33887 ft 386 kts 254°
2026-05-06 14:21 61.01041 38.37481 33890 ft 386 kts 254°
2026-05-06 14:22 60.99417 38.26920 33896 ft 386 kts 254°
2026-05-06 14:22 60.97792 38.16406 33895 ft 386 kts 254°
2026-05-06 14:23 60.96157 38.05882 33897 ft 386 kts 254°
2026-05-06 14:23 60.94513 37.95366 33899 ft 386 kts 254°
2026-05-06 14:24 60.92874 37.84946 33897 ft 386 kts 254°
2026-05-06 14:24 60.91217 37.74465 33901 ft 386 kts 254°
2026-05-06 14:25 60.89551 37.63991 33902 ft 386 kts 254°
2026-05-06 14:25 60.87876 37.53525 33900 ft 386 kts 254°
2026-05-06 14:26 60.86197 37.43070 33908 ft 386 kts 254°
2026-05-06 14:26 60.84506 37.32625 33902 ft 386 kts 254°
2026-05-06 14:27 60.82763 37.22227 33905 ft 386 kts 253°
2026-05-06 14:27 60.80953 37.11857 33908 ft 386 kts 253°
2026-05-06 14:28 60.79145 37.01535 33911 ft 385 kts 253°
2026-05-06 14:28 60.77336 36.91209 33909 ft 385 kts 253°
2026-05-06 14:29 60.75523 36.80902 33913 ft 385 kts 253°
2026-05-06 14:29 60.73706 36.70620 33910 ft 384 kts 253°
2026-05-06 14:30 60.71894 36.60415 33910 ft 384 kts 253°
2026-05-06 14:30 60.70065 36.50178 33919 ft 384 kts 253°
2026-05-06 14:31 60.68118 36.39337 33931 ft 383 kts 253°
2026-05-06 14:31 60.66278 36.29147 33929 ft 383 kts 253°
2026-05-06 14:32 60.64430 36.18971 33928 ft 383 kts 253°
2026-05-06 14:32 60.62574 36.08801 33930 ft 382 kts 253°
2026-05-06 14:33 60.60716 35.98674 33933 ft 382 kts 253°
2026-05-06 14:33 60.58851 35.88561 33936 ft 381 kts 253°
2026-05-06 14:34 60.56982 35.78481 33936 ft 381 kts 253°
2026-05-06 14:34 60.55110 35.68434 33937 ft 380 kts 253°
2026-05-06 14:35 60.53228 35.58384 33939 ft 380 kts 252°
2026-05-06 14:35 60.51353 35.48424 33943 ft 380 kts 253°
2026-05-06 14:36 60.49463 35.38432 33949 ft 379 kts 253°
2026-05-06 14:36 60.47570 35.28458 33954 ft 379 kts 253°
2026-05-06 14:37 60.45669 35.18517 33953 ft 378 kts 252°
2026-05-06 14:37 60.44135 35.08373 33964 ft 375 kts 258°
2026-05-06 14:38 60.42867 34.98141 33953 ft 375 kts 258°
2026-05-06 14:38 60.41589 34.87927 33963 ft 374 kts 258°
2026-05-06 14:39 60.40299 34.77727 33959 ft 374 kts 258°
2026-05-06 14:39 60.39003 34.67559 33970 ft 373 kts 258°
2026-05-06 14:40 60.37698 34.57401 33968 ft 373 kts 258°
2026-05-06 14:40 60.36396 34.47343 33955 ft 358 kts 258°
2026-05-06 14:41 60.35776 34.42595 33952 ft 342 kts 258°
2026-05-06 14:41 60.35174 34.37988 33970 ft 338 kts 258°
2026-05-06 14:41 60.33975 34.28803 33679 ft 336 kts 258°
2026-05-06 14:42 60.33383 34.24297 33301 ft 330 kts 258°
2026-05-06 14:42 60.32799 34.19876 32956 ft 323 kts 258°
2026-05-06 14:42 60.32224 34.15529 32605 ft 318 kts 258°
2026-05-06 14:42 60.31664 34.11300 32242 ft 313 kts 258°
2026-05-06 14:43 60.31096 34.07027 31864 ft 309 kts 258°
2026-05-06 14:43 60.30549 34.02923 31510 ft 305 kts 258°
2026-05-06 14:43 60.30001 33.98827 31154 ft 300 kts 258°
2026-05-06 14:43 60.29460 33.94791 30811 ft 296 kts 258°
2026-05-06 14:44 60.28925 33.90808 30469 ft 292 kts 258°
2026-05-06 14:44 60.28394 33.86866 30128 ft 289 kts 258°
2026-05-06 14:44 60.27872 33.82998 29733 ft 285 kts 258°
2026-05-06 14:45 60.26630 33.73837 28909 ft 273 kts 257°
2026-05-06 14:45 60.25360 33.64523 28056 ft 266 kts 257°
2026-05-06 14:46 60.24866 33.60900 27725 ft 275 kts 257°
2026-05-06 14:46 60.24345 33.57085 27362 ft 289 kts 257°
2026-05-06 14:46 60.23805 33.53157 26988 ft 289 kts 257°
2026-05-06 14:46 60.23270 33.49288 26630 ft 285 kts 257°
2026-05-06 14:47 60.22743 33.45485 26281 ft 281 kts 257°
2026-05-06 14:47 60.22220 33.41716 25941 ft 277 kts 257°
2026-05-06 14:47 60.21704 33.38006 25587 ft 274 kts 257°
2026-05-06 14:47 60.21200 33.34379 25259 ft 271 kts 257°
2026-05-06 14:48 60.20695 33.30750 24919 ft 268 kts 257°
2026-05-06 14:48 60.20195 33.27158 24588 ft 265 kts 257°
2026-05-06 14:48 60.19696 33.23603 24259 ft 263 kts 257°
2026-05-06 14:48 60.19200 33.20084 23940 ft 261 kts 257°
2026-05-06 14:49 60.18706 33.16578 23626 ft 260 kts 257°
2026-05-06 14:49 60.18211 33.13071 23207 ft 262 kts 257°
2026-05-06 14:49 60.17708 33.09516 22846 ft 269 kts 257°
2026-05-06 14:49 60.17186 33.05836 22506 ft 278 kts 257°
2026-05-06 14:50 60.16829 33.03323 22272 ft 277 kts 257°
2026-05-06 14:50 60.16134 32.98455 21827 ft 271 kts 257°
2026-05-06 14:50 60.15791 32.96058 21625 ft 268 kts 257°
2026-05-06 14:50 60.15280 32.92487 21290 ft 265 kts 257°
2026-05-06 14:51 60.14773 32.88950 20957 ft 262 kts 256°
2026-05-06 14:51 60.14273 32.85466 20636 ft 259 kts 256°
2026-05-06 14:51 60.13777 32.82015 20325 ft 256 kts 256°
2026-05-06 14:51 60.13285 32.78599 20012 ft 254 kts 256°
2026-05-06 14:52 60.12794 32.75197 19689 ft 254 kts 256°
2026-05-06 14:52 60.12304 32.71801 19394 ft 254 kts 256°
2026-05-06 14:52 60.11806 32.68356 19093 ft 262 kts 256°
2026-05-06 14:52 60.11288 32.64781 18778 ft 271 kts 256°
2026-05-06 14:53 60.10758 32.61137 18437 ft 271 kts 256°
2026-05-06 14:53 60.10231 32.57526 18073 ft 269 kts 256°
2026-05-06 14:53 60.09707 32.53946 17735 ft 265 kts 256°
2026-05-06 14:53 60.09190 32.50420 17416 ft 262 kts 256°
2026-05-06 14:54 60.08682 32.46950 17092 ft 259 kts 256°
2026-05-06 14:54 60.08178 32.43513 16776 ft 255 kts 256°
2026-05-06 14:54 60.07679 32.40121 16467 ft 253 kts 256°
2026-05-06 14:54 60.07182 32.36756 16159 ft 251 kts 256°
2026-05-06 14:55 60.06688 32.33424 15846 ft 249 kts 256°
2026-05-06 14:55 60.06196 32.30112 15539 ft 249 kts 256°
2026-05-06 14:55 60.05669 32.26738 14958 ft 261 kts 254°
2026-05-06 14:55 60.05081 32.23271 14567 ft 266 kts 254°
2026-05-06 14:56 60.04480 32.19789 14232 ft 264 kts 254°
2026-05-06 14:56 60.03883 32.16332 13910 ft 262 kts 254°
2026-05-06 14:56 60.03289 32.12887 13557 ft 260 kts 254°
2026-05-06 14:56 60.02703 32.09483 13233 ft 258 kts 254°
2026-05-06 14:57 60.02130 32.06151 12917 ft 255 kts 254°
2026-05-06 14:57 60.01557 32.02819 12623 ft 253 kts 254°
2026-05-06 14:57 60.00987 31.99507 12336 ft 250 kts 253°
2026-05-06 14:57 60.00423 31.96232 12024 ft 249 kts 253°
2026-05-06 14:58 59.99856 31.92941 11724 ft 252 kts 253°
2026-05-06 14:58 59.99282 31.89608 11420 ft 256 kts 253°
2026-05-06 14:58 59.98691 31.86184 11102 ft 265 kts 253°
2026-05-06 14:58 59.98082 31.82668 10790 ft 269 kts 253°
2026-05-06 14:59 59.97473 31.79155 10457 ft 268 kts 253°
2026-05-06 14:59 59.96860 31.75638 10178 ft 265 kts 253°
2026-05-06 14:59 59.96265 31.72234 10048 ft 256 kts 253°
2026-05-06 14:59 59.95682 31.68912 9795 ft 253 kts 253°
2026-05-06 15:00 59.95101 31.65590 9433 ft 254 kts 253°
2026-05-06 15:00 59.94519 31.62277 9108 ft 252 kts 253°
2026-05-06 15:00 59.93939 31.58986 8810 ft 251 kts 252°
2026-05-06 15:00 59.93362 31.55712 8512 ft 250 kts 252°
2026-05-06 15:01 59.92787 31.52457 8234 ft 248 kts 252°
2026-05-06 15:01 59.92215 31.49220 7946 ft 247 kts 252°
2026-05-06 15:01 59.91646 31.46005 7670 ft 245 kts 252°
2026-05-06 15:01 59.91079 31.42804 7393 ft 245 kts 252°
2026-05-06 15:02 59.90508 31.39582 7134 ft 251 kts 252°
2026-05-06 15:02 59.89917 31.36251 6874 ft 258 kts 252°
2026-05-06 15:02 59.89310 31.32852 6554 ft 262 kts 252°
2026-05-06 15:02 59.88707 31.29466 6385 ft 256 kts 252°
2026-05-06 15:03 59.88121 31.26188 6249 ft 248 kts 252°
2026-05-06 15:03 59.87549 31.22995 6135 ft 241 kts 252°
2026-05-06 15:03 59.86986 31.19871 6018 ft 239 kts 252°
2026-05-06 15:03 59.86251 31.16958 5949 ft 234 kts 230°
2026-05-06 15:04 59.84978 31.15023 5956 ft 231 kts 209°
2026-05-06 15:04 59.83522 31.13757 5968 ft 231 kts 204°
2026-05-06 15:04 59.82019 31.12564 5983 ft 236 kts 204°
2026-05-06 15:04 59.80483 31.11330 5955 ft 238 kts 205°
2026-05-06 15:05 59.78957 31.10094 5960 ft 237 kts 205°
2026-05-06 15:05 59.77437 31.08849 5950 ft 237 kts 205°
2026-05-06 15:05 59.75910 31.07627 5960 ft 236 kts 199°
2026-05-06 15:05 59.74272 31.07047 5959 ft 241 kts 187°
2026-05-06 15:06 59.72690 31.06779 5950 ft 242 kts 187°
2026-05-06 15:06 59.71000 31.06495 5951 ft 240 kts 187°
2026-05-06 15:06 59.69342 31.06193 5953 ft 239 kts 188°
2026-05-06 15:06 59.67704 31.05697 5943 ft 238 kts 203°
2026-05-06 15:07 59.66255 31.04233 5980 ft 234 kts 211°
2026-05-06 15:07 59.64824 31.02688 5959 ft 233 kts 211°
2026-05-06 15:07 59.63399 31.01175 5965 ft 233 kts 211°
2026-05-06 15:07 59.61973 30.99671 5967 ft 233 kts 211°
2026-05-06 15:08 59.60635 30.97920 5942 ft 229 kts 229°
2026-05-06 15:08 59.59625 30.95537 5965 ft 227 kts 233°
2026-05-06 15:08 59.58655 30.93066 5961 ft 226 kts 244°
2026-05-06 15:08 59.58285 30.90152 5967 ft 224 kts 274°
2026-05-06 15:09 59.58742 30.87198 5871 ft 227 kts 303°
2026-05-06 15:09 59.59920 30.85096 5700 ft 235 kts 332°
2026-05-06 15:09 59.60401 30.84681 5629 ft 237 kts 339°
2026-05-06 15:10 59.64670 30.82824 5102 ft 222 kts 347°
2026-05-06 15:10 59.66150 30.82260 4939 ft 212 kts 347°
2026-05-06 15:10 59.67575 30.81699 4785 ft 205 kts 347°
2026-05-06 15:10 59.68944 30.81157 4624 ft 196 kts 346°
2026-05-06 15:11 59.70259 30.80622 4506 ft 195 kts 346°
2026-05-06 15:11 59.71593 30.80074 4340 ft 190 kts 346°
2026-05-06 15:11 59.72855 30.79556 4207 ft 182 kts 346°
2026-05-06 15:11 59.74076 30.79052 4051 ft 178 kts 345°
2026-05-06 15:12 59.75271 30.78556 3967 ft 177 kts 345°
2026-05-06 15:12 59.76492 30.78052 3815 ft 177 kts 346°
2026-05-06 15:12 59.77685 30.77555 3666 ft 172 kts 346°
2026-05-06 15:12 59.78756 30.76673 3506 ft 165 kts 316°
2026-05-06 15:13 59.79301 30.74771 3401 ft 159 kts 283°
2026-05-06 15:13 59.79211 30.72615 3297 ft 161 kts 250°
2026-05-06 15:13 59.78726 30.70636 3190 ft 157 kts 248°
2026-05-06 15:13 59.78259 30.68697 3047 ft 158 kts 248°
2026-05-06 15:14 59.77796 30.66790 2919 ft 150 kts 247°
2026-05-06 15:14 59.77339 30.64914 2848 ft 154 kts 248°
2026-05-06 15:14 59.76875 30.63004 2754 ft 150 kts 247°
2026-05-06 15:14 59.76415 30.61144 2647 ft 149 kts 248°
2026-05-06 15:15 59.76119 30.59239 2494 ft 144 kts 276°
2026-05-06 15:15 59.76321 30.57337 2494 ft 141 kts 282°
2026-05-06 15:15 59.76500 30.55457 2504 ft 146 kts 282°
2026-05-06 15:15 59.76695 30.53728 2489 ft 143 kts 286°
2026-05-06 15:16 59.76964 30.51792 2373 ft 147 kts 287°
2026-05-06 15:16 59.77235 30.49885 2175 ft 143 kts 287°
2026-05-06 15:16 59.77511 30.47984 1979 ft 140 kts 287°
2026-05-06 15:16 59.77784 30.46110 1799 ft 142 kts 287°
2026-05-06 15:17 59.78059 30.44248 1604 ft 136 kts 287°
2026-05-06 15:17 59.78314 30.42514 1388 ft 131 kts 286°
2026-05-06 15:17 59.78573 30.40750 1207 ft 132 kts 287°
2026-05-06 15:17 59.78830 30.39006 1021 ft 134 kts 287°
2026-05-06 15:18 59.79093 30.37225 820 ft 135 kts 288°
2026-05-06 15:18 59.79351 30.35478 639 ft 137 kts 288°
2026-05-06 15:18 59.79626 30.33621 449 ft 140 kts 287°
2026-05-06 15:18 59.79896 30.31790 265 ft 136 kts 288°
2026-05-06 15:19 59.80162 30.29997 100 ft 134 kts 288°
2026-05-06 15:19 59.80398 30.28407 77 ft 102 kts 286°
2026-05-06 15:19 59.80553 30.27356 77 ft 53 kts 286°
2026-05-06 15:19 59.80592 30.27087 89 ft 16 kts 288°
2026-05-06 15:20 59.80623 30.26888 88 ft 15 kts 286°
2026-05-06 15:20 59.80638 30.26776 86 ft 7 kts 283°
2026-05-06 15:20 59.80630 30.26683 87 ft 7 kts 236°
2026-05-06 15:20 59.80588 30.26637 85 ft 7 kts 199°
2026-05-06 15:21 59.80557 30.26617 86 ft 0 kts 197°
2026-05-06 15:23 59.80551 30.26613 85 ft 3 kts 196°
2026-05-06 15:23 59.80515 30.26592 90 ft 7 kts 197°
2026-05-06 15:23 59.80466 30.26572 85 ft 7 kts 172°
2026-05-06 15:23 59.80431 30.26638 85 ft 7 kts 114°
2026-05-06 15:24 59.80414 30.26741 87 ft 8 kts 108°
2026-05-06 15:24 59.80392 30.26847 86 ft 9 kts 133°
2026-05-06 15:24 59.80349 30.26849 86 ft 0 kts 195°
2026-05-06 15:24 59.80345 30.26846 84 ft 1 kts 194°
2026-05-06 15:25 59.80332 30.26840 84 ft 3 kts 194°
2026-05-06 15:25 59.80310 30.26829 84 ft 4 kts 195°
2026-05-06 15:25 59.80281 30.26812 89 ft 5 kts 197°
2026-05-06 15:25 59.80240 30.26788 85 ft 7 kts 196°
2026-05-06 15:26 59.80193 30.26760 89 ft 8 kts 197°
2026-05-06 15:26 59.80156 30.26739 85 ft 9 kts 196°
2026-05-06 15:26 59.80075 30.26690 85 ft 10 kts 197°
2026-05-06 15:26 59.80010 30.26652 88 ft 9 kts 197°
2026-05-06 15:27 59.79975 30.26631 85 ft 1 kts 196°
2026-05-06 15:27 59.79964 30.26625 85 ft 2 kts 196°
2026-05-06 15:27 59.79942 30.26612 89 ft 5 kts 195°
2026-05-06 15:27 59.79909 30.26631 88 ft 5 kts 134°
2026-05-06 15:28 59.79895 30.26683 85 ft 2 kts 113°
2026-05-06 15:28 59.79893 30.26696 86 ft 0 kts 112°